STARLINK-4002 (52612 NORAD) Tracking and Keplerian Element Data

This shows tracking and keplerian element data for the satellite.

Feedback or suggestion? Click here.




ElementValue
Catalog52612
NameSTARLINK-4002
Epoch Orbit130
Epoch Day167.08334491
Epoch Year2022
RAAN280.9614
Inclination53.2174
Eccentricity0.0001391
Argument of Perigee45.5015
Mean Anonmoly267.7729
Mean Motion15.54112054
Decay Rate-0.0070651
L11 52612U 22052Q 22167.08334491 -.00706510 00000+0 -11676-1 0 9999
L22 52612 53.2174 280.9614 0001391 45.5015 267.7729 15.54112054 1306

Live tracking and technical data element details for STARLINK-4002 (NORAD 52612). STARLINK-4002 can be tracked NOW for your location showing map with azimuth and elevation plus other details from your city location.

Track the satellite on the map from your city or location and see movement details for azimuth, elevation, latitude, longitude, range, height, and movement on the map or in text.







IsCatalogInMostPopularTable: catalog: 52612, numindb: 1
Update: records affected: 1



GetName: 52612 STARLINK-4002

Hit Count: updated at: Mon, 27 Jun 2022 06:07:33 GMT